Location: Newark
(46.7000°N, 60.6000°W)
Time: 03:44:43
(UTC+00:00)

A-11 Canister half - Pass Details

Date: 02 November 2020
Orbit: 1525 x 1683 km, 47.3° (Epoch: 23 November)

Event Time Altitude Azimuth Distance (km) Brightness Sun altitude
Rises 16:21:00 0° 215° (SW) 4,837 12.6 27.8°
Reaches altitude 10° 16:24:20 10° 210° (SSW) 3,831 12.5 27.7°
Maximum altitude 16:33:19 44° 142° (SE) 2,065 10.6 27.3°
Drops below altitude 10° 16:42:03 10° 74° (ENE) 3,733 10.8 27.0°
Sets 16:45:14 0° 69° (ENE) 4,703 11.2 26.8°
